Regional Weather Roundup
Issued by NWS

Home | Current Version | Previous Version | Text Only | Print | Product List | Glossary Off
Versions: 1 2 3 4 5 6 7 8 9 10 11 12 13 14 15 16 17 18 19 20 21 22 23 24 25 26 27

000
ASUS45 KSLC 161810
RWRUT

UTAH REGIONAL WEATHER ROUNDUP
NATIONAL WEATHER SERVICE SALT LAKE CITY UT
1200 PM MDT WED AUG 16 2017

UTZ001>011-023>025-161900-

NORTHERN UTAH

CITY           SKY/WX    TMP DP  RH WIND       PRES   REMARKS
BRIGHAM CITY   SUNNY     76  43  31 CALM      30.10S
DUGWAY         PTSUNNY   83  35  17 NW5       30.07
HILL AFB       MOSUNNY   76  39  25 CALM      30.12S
LOGAN          SUNNY     74  47  38 NW5       30.10F
OGDEN          MOSUNNY   80  38  22 VRB6      30.09S
SALT LAKE CITY PTSUNNY   80  41  24 VRB5      30.08S
TOOELE VALLEY  MOSUNNY   81  34  18 NE5       30.08F
WENDOVER       PTSUNNY   78  36  21 E6        30.08S
HEBER CITY     SUNNY     70  43  37 NW3       30.17S
WEST JORDAN    MOSUNNY   78  53  42 SE7       30.11F

$$

UTZ011>015-024>027-161900-

CENTRAL/NORTHEAST UTAH

CITY           SKY/WX    TMP DP  RH WIND       PRES   REMARKS
PROVO AIRPORT  SUNNY     75  48  38 SW8       30.11F
MOAB/CANYONLAN SUNNY     81  37  20 CALM      30.08S
DELTA          SUNNY     79  34  19 S3        30.11S
PRICE          SUNNY     75  38  26 VRB3      30.18S
RICHFIELD      SUNNY     77  41  27 CALM      30.15
ROOSEVELT      SUNNY     70  46  43 E5        30.20S
VERNAL         SUNNY     69  50  50 CALM      30.19S

$$

UTZ013>016-019>022-027-161900-

SOUTHERN UTAH

CITY           SKY/WX    TMP DP  RH WIND       PRES   REMARKS
BRYCE CANYON   SUNNY     70  34  26 S6        30.29S
CEDAR CITY     SUNNY     78  32  18 VRB6      30.15S
MILFORD        SUNNY     83  33  16 S12       30.11S
ST GEORGE      CLEAR     83  40  21 CALM      30.01F
HANKSVILLE     SUNNY     81  39  22 SE6       30.11S
KANAB          SUNNY     81  32  17 SW7       30.17
BLANDING       SUNNY     74  31  20 S6        30.26S

$$

REGIONAL REPORTS     COLORADO/ARIZONA

CITY           SKY/WX    TMP DP  RH WIND       PRES   REMARKS
CRAIG, CO      SUNNY     70  43  37 VRB7      30.22S
GRAND JUNCTION SUNNY     78  42  27 SW7       30.11F
RIFLE, CO      SUNNY     75  40  28 NW7       30.15F
MONTROSE, CO   SUNNY     76  35  22 NE7       30.18F
CORTEZ, CO     SUNNY     77  28  16 CALM      30.19S
COLORADO CITY    N/A     82  34  17 SE6       30.16S
PAGE, AZ       SUNNY     82  31  15 NE5       30.08F
GRAND CANYON   MOSUNNY   75  28  17 SW7G17    30.26S
KINGMAN, AZ    SUNNY     86  38  18 SW8       30.03R
FLAGSTAFF, AZ  CLOUDY    68  30  24 S15       30.30R

$$

REGIONAL REPORTS    NEVADA/IDAHO/WYOMING

CITY           SKY/WX    TMP DP  RH WIND       PRES   REMARKS
LAS VEGAS, NV  MOSUNNY   91  38  15 CALM      29.94S
ELY, NY        CLOUDY    74  39  28 VRB5      30.19S
ELKO, NV       PTSUNNY   75  34  22 CALM      30.12S
POCATELLO, ID  SUNNY     77  37  23 SW5       30.10F
BURLEY, ID     SUNNY     75  43  31 W3        30.07S
FORT BRIDGER,    N/A     70  37  30 W5        30.29S
EVANSTON, WY   SUNNY     69  34  27 VRB6      30.25F
ROCK SPRINGS,  SUNNY     66  42  41 VRB3      30.24S
KEMMERER, WY     N/A     66  32  28 S5        30.26F

$$




USA.gov is the U.S. government's official web portal to all federal, state and local government web resources and services.